Weather observations for the past three days for
Eugene, Mahlon Sweet Field
Imperial (Metric)
Date Time (pdt) Wind (mph) Vis. (mi.) Weather Sky Cond. Temperature (ºF) Relative Humidity Wind Chill (°F) Heat Index (°F) Pressure Precipitation (in)
Air Dwpt 6 hour altimeter (in) sea level (mb) 1 hr 3 hr 6 hr
Max. Min.
18 12:54 Vrbl 6 10.00 Fair CLR 79 55 44% 80 30.09 1018.9
18 11:54 S 8 10.00 Fair CLR 73.9 55 52% 30.11 1019.4
18 10:54 S 6 10.00 A Few Clouds FEW150 70 55 70 57 59% 30.12 1019.7
18 09:54 Vrbl 3 10.00 Partly Cloudy FEW011 SCT150 64.9 55 70% 30.12 1019.9
18 08:54 Vrbl 3 10.00 Overcast OVC011 63 55 76% 30.13 1020.3
18 07:54 SE 7 10.00 Mostly Cloudy BKN011 60.1 54 80% 30.13 1020.1
18 06:54 S 6 10.00 Mostly Cloudy BKN011 60.1 55 84% 30.12 1019.6
18 05:54 SE 8 10.00 Mostly Cloudy BKN011 57.9 54 87% 30.11 1019.5
18 04:54 SE 7 10.00 A Few Clouds FEW011 57 53.1 61 55.9 87% 30.11 1019.3
18 03:54 SE 8 10.00 Mostly Cloudy BKN013 57.9 53.1 84% 30.1 1019.0
18 02:54 S 6 10.00 Overcast OVC013 59 54 83% 30.1 1018.9
18 01:54 SE 6 10.00 Mostly Cloudy BKN013 57 52 83% 30.09 1018.8
18 00:54 S 8 10.00 Fair CLR 59 53.1 81% 30.09 1018.7
17 23:54 S 10 10.00 Fair CLR 60.1 53.1 78% 30.09 1018.6
17 22:54 S 8 10.00 A Few Clouds FEW250 61 53.1 87.1 61 75% 30.08 1018.3
17 21:54 S 10 10.00 A Few Clouds FEW250 64 53.1 68% 30.06 1017.9
17 20:54 SW 8 10.00 A Few Clouds FEW150 FEW250 69.1 54 59% 30.04 1016.9
17 19:54 SW 14 10.00 A Few Clouds FEW250 75 53.1 46% 78 30.02 1016.5
17 18:54 S 12 10.00 A Few Clouds FEW200 80.1 52 38% 80 30.02 1016.3
17 17:54 S 15 10.00 A Few Clouds FEW200 84.9 54 35% 83 30 1015.8
17 16:54 S 7 10.00 A Few Clouds FEW200 84.9 53.1 86 66.9 33% 83 30 1015.5
17 15:54 Vrbl 5 10.00 A Few Clouds FEW200 82.9 55.9 40% 82 30.01 1016.1
17 14:54 Vrbl 3 10.00 Fair CLR 82 55 40% 81 30.03 1016.6
17 13:54 SW 7 10.00 Fair CLR 77 54 45% 78 30.03 1016.9
17 12:54 W 6 10.00 A Few Clouds FEW200 75 53.1 46% 78 30.04 1017.2
17 11:54 Calm 10.00 A Few Clouds FEW200 71.1 53.1 53% 30.05 1017.3
17 10:54 SE 7 10.00 A Few Clouds FEW200 68 53.1 68 55 59% 30.05 1017.4
17 09:54 S 6 10.00 Mostly Cloudy FEW017 FEW050 BKN250 64 52 65% 30.05 1017.5
17 08:54 SE 6 10.00 Mostly Cloudy FEW017 SCT050 BKN200 61 52 72% 30.05 1017.5
17 07:54 SE 8 10.00 Mostly Cloudy FEW016 BKN050 BKN200 57.9 51.1 78% 30.05 1017.4
17 06:54 SE 8 10.00 Mostly Cloudy SCT015 BKN200 55.9 51.1 84% 30.04 1017.1
17 05:54 S 6 10.00 Mostly Cloudy BKN016 BKN200 55.9 51.1 84% 30.04 1016.9
17 04:54 SE 8 10.00 Overcast OVC014 57 53.1 59 57 87% 30.02 1016.5
17 03:54 SE 9 10.00 Overcast OVC014 57 53.1 87% 30.02 1016.3
17 02:54 S 12 10.00 A Few Clouds FEW014 57 53.1 87% 30.01 1015.9
17 01:54 S 8 10.00 A Few Clouds FEW012 57 53.1 87% 30.01 1016.0
17 00:54 S 12 10.00 Mostly Cloudy BKN014 57.9 54 87% 30.02 1016.2
16 23:54 SE 10 10.00 Fair CLR 57.9 55 90% 29.99 1015.3
16 22:54 SE 16 G 22 10.00 Mostly Cloudy FEW085 BKN120 BKN210 59 55 98.1 59 87% 29.98 1015.1 0.01 0.1
16 20:54 SE 20 G 28 9.00 Thunderstorm Light Rain FEW035 BKN065CB BKN140 60.1 55 84% 30.02 1016.3 0.02
16 19:54 S 23 G 33 10.00 Mostly Cloudy and Breezy BKN150 BKN210 64 52 65% 29.9 1012.4
16 18:54 S 24 G 35 10.00 Mostly Cloudy and Breezy BKN150 BKN210 72 54 53% 29.87 1011.2
16 17:54 SW 14 G 18 10.00 Mostly Cloudy FEW090 SCT190 BKN250 93 55.9 29% 91 29.86 1010.7
16 16:54 N 14 10.00 Mostly Cloudy FEW090 SCT190 BKN250 95 50 97 81 22% 92 29.84 1010.1
16 15:54 NW 13 G 22 10.00 Mostly Cloudy FEW090 BKN190 BKN250 96.1 52 23% 93 29.86 1010.8
16 14:54 NW 8 10.00 Mostly Cloudy FEW090 BKN190 BKN250 93.9 55 27% 92 29.87 1011.3
16 13:54 N 8 10.00 Partly Cloudy FEW080 SCT200 93 55.9 29% 91 29.9 1012.4
16 12:54 Vrbl 7 G 18 10.00 A Few Clouds FEW080 FEW200 89.1 57 34% 88 29.92 1013.0
16 11:54 N 8 10.00 A Few Clouds FEW100 FEW200 84.9 55.9 37% 84 29.94 1013.7
16 10:54 NW 9 10.00 A Few Clouds FEW100 80.1 55.9 80.1 55.9 44% 80 29.96 1014.4
16 09:54 N 9 10.00 A Few Clouds FEW100 77 57.9 52% 79 29.98 1014.8
16 08:54 N 10 10.00 A Few Clouds FEW150 72 57.9 61% 29.98 1015.0
16 07:54 Calm 10.00 Fair CLR 68 55 63% 29.98 1015.1
16 06:54 Calm 10.00 A Few Clouds FEW200 60.1 52 75% 29.98 1015.1
16 05:54 Vrbl 3 10.00 A Few Clouds FEW200 55.9 52 87% 29.98 1015.0
16 04:54 Calm 10.00 Fair CLR 59 52 68 57 78% 29.98 1014.9
16 03:54 NE 5 10.00 Fair CLR 60.1 53.1 78% 29.97 1014.6
16 02:54 E 3 10.00 Fair CLR 57.9 52 81% 29.97 1014.6
16 01:54 N 5 10.00 Fair CLR 62.1 53.1 73% 29.97 1014.6
16 00:54 Calm 10.00 Fair CLR 64.9 54 68% 29.98 1014.8
15 23:54 NW 8 10.00 Fair CLR 66 52 61% 29.97 1014.7
15 22:54 NW 9 10.00 A Few Clouds FEW250 66.9 51.1 91.9 63 57% 29.97 1014.7
15 21:54 NW 9 10.00 A Few Clouds FEW250 72 50 46% 29.97 1014.7
15 20:54 N 8 10.00 A Few Clouds FEW250 75.9 48.9 39% 78 29.96 1014.4
15 19:54 N 7 10.00 A Few Clouds FEW250 84.9 48.9 29% 83 29.96 1014.2
15 18:54 N 13 10.00 A Few Clouds FEW250 90 45 21% 86 29.96 1014.3
15 17:54 N 12 10.00 A Few Clouds FEW250 91.9 43 18% 88 29.97 1014.7
15 16:54 NW 15 10.00 A Few Clouds FEW120 FEW250 91.9 44.1 93 78.1 19% 88 29.99 1015.2
15 15:54 N 10 G 21 10.00 Partly Cloudy FEW120 SCT250 91.9 46 21% 88 30 1015.8
15 14:54 N 13 G 25 10.00 Partly Cloudy FEW120 SCT250 90 46 22% 87 30.03 1016.7
15 13:54 NW 16 G 22 10.00 A Few Clouds FEW120 FEW250 89.1 46.9 23% 86 30.05 1017.3
Date Time (pdt) Wind (mph) Vis. (mi.) Weather Sky Cond. Air Dwpt Max. Min. Relative Humidity Wind Chill (°F) Heat Index (°F) altimeter (in) sea level (mb) 1 hr 3 hr 6 hr
6 hour
Temperature (ºF) Pressure Precipitation (in)